Tracking 28790 objects as of 19-Apr-2024
HD Live streaming from Space Station
objects crossing your sky now

ATLAS CENTAUR 2 DEB

Track ATLAS CENTAUR 2 DEB now!
10-day predictions


NORAD ID: 3741
Int'l Code: 1963-047L
Perigee: 592.8 km
Apogee: 1,011.8 km
Inclination: 29.9 °
Period: 100.8 minutes
Semi major axis: 7173 km
RCS: 0.0775 m2 (small)
Launch date: November 27, 1963
Source: United States (US)
Launch site: AIR FORCE EASTERN TEST RANGE (AFETR)

Note: This is SATELLITE DEBRIS
Your satellite tracking list
Your tracking list is empty




NASA's NSSDC Master Catalog

Two Line Element Set (TLE):
1  3741U 63047L   24106.92119176  .00015141  00000-0  36835-2 0  9993
2  3741  29.8822 322.6855 0292033 170.7694 189.8418 14.28976117798696
Source of the keplerian elements: AFSPC